THY3GK LTFM-LIRF

Flight info

Callsign THY3GK
Flight time N/A
Altitude 38000
Route VADEN DCT BAKLO DCT ROVAM DCT DOLAP DCT GINAM DCT BUNEX/N0472F370 DCT ESODU/N0453F330 DCT ASPIR DCT MOPUV
Aircraft B77W/H-SDE1E2E3FGHIJ2J3J4J5M1RWXY/LB1D1

Departure

Time 2026-05-01 14:25
Airport İstanbul Airport (LTFM)

Arrival

Time N/A
Airport Rome–Fiumicino Leonardo da Vinci International Airport (LIRF)
Time Latitude Longitude Altitude Speed Heading
2026-05-01 13:41 41.26779 28.73621 341 ft 0 kts 180°
2026-05-01 14:09 41.26788 28.73621 341 ft 2 kts 180°
2026-05-01 14:10 41.26804 28.73621 341 ft 2 kts 180°
2026-05-01 14:10 41.26819 28.73622 341 ft 2 kts 190°
2026-05-01 14:10 41.26832 28.73628 341 ft 2 kts 209°
2026-05-01 14:10 41.26844 28.73639 341 ft 2 kts 224°
2026-05-01 14:11 41.26854 28.73654 341 ft 2 kts 240°
2026-05-01 14:11 41.26862 28.73689 341 ft 0 kts 269°
2026-05-01 14:11 41.26862 28.73693 341 ft 0 kts 270°
2026-05-01 14:13 41.26862 28.73692 341 ft 0 kts 270°
2026-05-01 14:13 41.26862 28.73682 341 ft 1 kts 270°
2026-05-01 14:14 41.26862 28.73656 341 ft 3 kts 270°
2026-05-01 14:14 41.26862 28.73613 341 ft 5 kts 269°
2026-05-01 14:14 41.26861 28.73555 341 ft 7 kts 270°
2026-05-01 14:14 41.26860 28.73484 341 ft 8 kts 269°
2026-05-01 14:15 41.26860 28.73403 341 ft 9 kts 269°
2026-05-01 14:15 41.26859 28.73341 341 ft 9 kts 269°
2026-05-01 14:15 41.26857 28.73247 341 ft 10 kts 269°
2026-05-01 14:15 41.26855 28.73148 341 ft 11 kts 269°
2026-05-01 14:16 41.26854 28.73072 341 ft 11 kts 265°
2026-05-01 14:16 41.26850 28.73048 341 ft 9 kts 245°
2026-05-01 14:17 41.26790 28.73001 341 ft 10 kts 188°
2026-05-01 14:17 41.26711 28.72994 341 ft 11 kts 181°
2026-05-01 14:17 41.26628 28.72994 341 ft 12 kts 180°
2026-05-01 14:17 41.26541 28.72995 341 ft 12 kts 179°
2026-05-01 14:18 41.26453 28.72996 341 ft 12 kts 179°
2026-05-01 14:18 41.26377 28.72999 340 ft 2 kts 179°
2026-05-01 14:18 41.26366 28.72999 341 ft 3 kts 178°
2026-05-01 14:18 41.26362 28.72999 341 ft 0 kts 179°
2026-05-01 14:19 41.26351 28.73000 341 ft 2 kts 178°
2026-05-01 14:19 41.26327 28.73001 341 ft 4 kts 178°
2026-05-01 14:19 41.26288 28.73002 341 ft 6 kts 178°
2026-05-01 14:19 41.26239 28.72999 341 ft 7 kts 201°
2026-05-01 14:20 41.26222 28.72984 341 ft 0 kts 227°
2026-05-01 14:20 41.26220 28.72980 341 ft 0 kts 230°
2026-05-01 14:23 41.26204 28.72922 340 ft 13 kts 258°
2026-05-01 14:23 41.26202 28.72769 340 ft 16 kts 271°
2026-05-01 14:24 41.26201 28.72621 340 ft 14 kts 270°
2026-05-01 14:24 41.26253 28.72529 341 ft 12 kts 340°
2026-05-01 14:24 41.26298 28.72521 341 ft 0 kts 359°
2026-05-01 14:24 41.26393 28.72521 341 ft 47 kts
2026-05-01 14:25 41.27001 28.72507 341 ft 123 kts 359°
2026-05-01 14:25 41.28038 28.72471 539 ft 168 kts
2026-05-01 14:25 41.29284 28.72399 1227 ft 186 kts
2026-05-01 14:25 41.30473 28.72477 2182 ft 180 kts
2026-05-01 14:26 41.31786 28.72504 2605 ft 199 kts
2026-05-01 14:26 41.34784 28.72504 3656 ft 230 kts
2026-05-01 14:26 41.36407 28.72480 4293 ft 242 kts 356°
2026-05-01 14:27 41.38024 28.71766 5048 ft 254 kts 333°
2026-05-01 14:27 41.39341 28.70127 5793 ft 266 kts 309°
2026-05-01 14:27 41.40307 28.68049 6607 ft 269 kts 304°
2026-05-01 14:28 41.42205 28.63748 8179 ft 273 kts 304°
2026-05-01 14:28 41.43182 28.61574 8957 ft 275 kts 304°
2026-05-01 14:28 41.44162 28.59400 9707 ft 277 kts 303°
2026-05-01 14:28 41.45179 28.57191 10345 ft 284 kts 303°
2026-05-01 14:29 41.46243 28.54894 10725 ft 299 kts 303°
2026-05-01 14:29 41.47363 28.52475 11119 ft 315 kts 303°
2026-05-01 14:30 41.51067 28.44460 12488 ft 360 kts 302°
2026-05-01 14:30 41.52393 28.41584 13201 ft 369 kts 302°
2026-05-01 14:30 41.53731 28.38676 14124 ft 372 kts 302°
2026-05-01 14:31 41.56454 28.32753 16086 ft 381 kts 301°
2026-05-01 14:31 41.57843 28.29725 17074 ft 386 kts 301°
2026-05-01 14:31 41.59248 28.26662 18027 ft 390 kts 301°
2026-05-01 14:31 41.60659 28.23580 18953 ft 395 kts 300°
2026-05-01 14:32 41.62083 28.20468 19869 ft 400 kts 300°
2026-05-01 14:32 41.63540 28.17281 20764 ft 405 kts 300°
2026-05-01 14:32 41.65010 28.14060 21669 ft 410 kts 300°
2026-05-01 14:32 41.66498 28.10797 22532 ft 415 kts 300°
2026-05-01 14:33 41.67985 28.07533 23373 ft 419 kts 300°
2026-05-01 14:33 41.69509 28.04183 24177 ft 424 kts 300°
2026-05-01 14:33 41.71044 28.00805 24949 ft 429 kts 300°
2026-05-01 14:33 41.72601 27.97375 25675 ft 434 kts 300°
2026-05-01 14:34 41.74166 27.93925 26405 ft 438 kts 300°
2026-05-01 14:34 41.75739 27.90451 27114 ft 443 kts 300°
2026-05-01 14:34 41.77330 27.86935 27801 ft 447 kts 300°
2026-05-01 14:34 41.78937 27.83378 28496 ft 451 kts 300°
2026-05-01 14:35 41.80577 27.79744 29182 ft 456 kts 300°
2026-05-01 14:35 41.82215 27.76112 29948 ft 457 kts 300°
2026-05-01 14:35 41.83848 27.72487 30872 ft 455 kts 300°
2026-05-01 14:35 41.85491 27.68836 31581 ft 450 kts 300°
2026-05-01 14:36 41.87099 27.65257 32119 ft 448 kts 300°
2026-05-01 14:36 41.88717 27.61652 32539 ft 448 kts 299°
2026-05-01 14:36 41.90311 27.58095 32927 ft 449 kts 299°
2026-05-01 14:36 41.91934 27.54471 33332 ft 449 kts 299°
2026-05-01 14:37 41.93528 27.50906 33761 ft 449 kts 299°
2026-05-01 14:37 41.95140 27.47296 34301 ft 448 kts 299°
2026-05-01 14:37 41.96733 27.43726 34815 ft 447 kts 299°
2026-05-01 14:37 41.98311 27.40184 35336 ft 445 kts 299°
2026-05-01 14:38 41.99888 27.36641 35834 ft 444 kts 299°
2026-05-01 14:38 42.01473 27.33075 36298 ft 443 kts 299°
2026-05-01 14:38 42.03048 27.29526 36722 ft 442 kts 299°
2026-05-01 14:38 42.04613 27.25997 37083 ft 443 kts 299°
2026-05-01 14:39 42.06207 27.22488 37398 ft 444 kts 302°
2026-05-01 14:39 42.08110 27.19215 37743 ft 446 kts 309°
2026-05-01 14:39 42.10194 27.16083 38100 ft 445 kts 309°
2026-05-01 14:39 42.12254 27.13008 38201 ft 449 kts 309°
2026-05-01 14:40 42.14351 27.09869 38218 ft 448 kts 309°
2026-05-01 14:40 42.18504 27.03634 38224 ft 449 kts 309°
2026-05-01 14:41 42.22659 26.97372 38225 ft 449 kts 309°
2026-05-01 14:41 42.26783 26.91140 38223 ft 449 kts 310°
2026-05-01 14:42 42.30941 26.84841 38228 ft 449 kts 310°
2026-05-01 14:42 42.34858 26.78293 38223 ft 447 kts 300°
2026-05-01 14:43 42.37434 26.70699 38232 ft 446 kts 290°
2026-05-01 14:43 42.39597 26.62836 38237 ft 445 kts 290°
2026-05-01 14:44 42.41742 26.55009 38237 ft 446 kts 290°
2026-05-01 14:44 42.44943 26.43276 38240 ft 446 kts 290°
2026-05-01 14:45 42.48146 26.31484 38252 ft 447 kts 289°
2026-05-01 14:46 42.50280 26.23595 38249 ft 446 kts 289°
2026-05-01 14:46 42.53482 26.11709 38248 ft 447 kts 289°
2026-05-01 14:47 42.55601 26.03814 38239 ft 448 kts 290°
2026-05-01 14:48 42.58771 25.91953 38221 ft 448 kts 290°
2026-05-01 14:48 42.61944 25.80022 38206 ft 448 kts 290°
2026-05-01 14:49 42.66155 25.64094 38192 ft 449 kts 290°
2026-05-01 14:50 42.70342 25.48156 38165 ft 449 kts 290°
2026-05-01 14:51 42.73469 25.36183 38150 ft 451 kts 290°
2026-05-01 14:52 42.76599 25.24136 38151 ft 449 kts 289°
2026-05-01 14:53 42.79708 25.12110 38160 ft 450 kts 289°
2026-05-01 14:53 42.81773 25.04089 38164 ft 450 kts 289°
2026-05-01 14:54 42.83826 24.96090 38170 ft 451 kts 289°
2026-05-01 14:54 42.85888 24.88024 38177 ft 451 kts 289°
2026-05-01 14:55 42.87956 24.79909 38172 ft 452 kts 289°
2026-05-01 14:55 42.90007 24.71836 38166 ft 451 kts 289°
2026-05-01 14:56 42.92043 24.63789 38179 ft 451 kts 289°
2026-05-01 14:56 42.94094 24.55657 38198 ft 452 kts 289°
2026-05-01 14:57 42.96121 24.47594 38207 ft 451 kts 290°
2026-05-01 14:57 42.99164 24.35436 38212 ft 452 kts 290°
2026-05-01 14:58 43.01190 24.27305 38217 ft 454 kts 289°
2026-05-01 14:58 43.03216 24.19147 38221 ft 453 kts 289°
2026-05-01 14:59 43.05233 24.10996 38233 ft 454 kts 289°
2026-05-01 14:59 43.07247 24.02827 38231 ft 454 kts 289°
2026-05-01 15:00 43.10263 23.90538 38240 ft 456 kts 289°
2026-05-01 15:01 43.12259 23.82371 38242 ft 455 kts 289°
2026-05-01 15:01 43.14262 23.74145 38239 ft 455 kts 289°
2026-05-01 15:02 43.16252 23.65945 38235 ft 455 kts 289°
2026-05-01 15:02 43.18232 23.57756 38222 ft 455 kts 289°
2026-05-01 15:03 43.20220 23.49505 38237 ft 456 kts 290°
2026-05-01 15:03 43.22195 23.41276 38244 ft 456 kts 290°
2026-05-01 15:04 43.24166 23.33033 38248 ft 456 kts 289°
2026-05-01 15:04 43.26133 23.24780 38246 ft 456 kts 289°
2026-05-01 15:05 43.28098 23.16503 38238 ft 457 kts 289°
2026-05-01 15:05 43.30049 23.08254 38219 ft 457 kts 289°
2026-05-01 15:06 43.31997 22.99988 38204 ft 458 kts 289°
2026-05-01 15:06 43.33948 22.91681 38203 ft 457 kts 289°
2026-05-01 15:07 43.35886 22.83398 38200 ft 458 kts 289°
2026-05-01 15:07 43.37055 22.74803 38191 ft 462 kts 274°
2026-05-01 15:08 43.36865 22.65993 38192 ft 465 kts 270°
2026-05-01 15:08 43.36539 22.57130 38192 ft 466 kts 270°
2026-05-01 15:09 43.36183 22.48277 38190 ft 466 kts 269°
2026-05-01 15:09 43.35809 22.39431 38194 ft 465 kts 269°
2026-05-01 15:10 43.35418 22.30546 38201 ft 465 kts 269°
2026-05-01 15:10 43.34816 22.17255 38217 ft 465 kts 269°
2026-05-01 15:11 43.34195 22.03949 38219 ft 466 kts 269°
2026-05-01 15:12 43.33776 21.95155 38230 ft 466 kts 269°
2026-05-01 15:12 43.33126 21.81827 38237 ft 467 kts 269°
2026-05-01 15:14 43.32010 21.59635 38233 ft 468 kts 269°
2026-05-01 15:14 43.31317 21.46265 38230 ft 469 kts 269°
2026-05-01 15:15 43.30397 21.28563 38234 ft 468 kts 268°
2026-05-01 15:16 43.29476 21.10742 38232 ft 469 kts 268°
2026-05-01 15:18 43.28280 20.88416 38225 ft 469 kts 268°
2026-05-01 15:19 43.27293 20.70607 38210 ft 469 kts 269°
2026-05-01 15:19 43.26545 20.57431 38222 ft 469 kts 269°
2026-05-01 15:20 43.25771 20.44059 38215 ft 470 kts 268°
2026-05-01 15:21 43.25247 20.35166 38206 ft 469 kts 268°
2026-05-01 15:21 43.24726 20.26434 38200 ft 470 kts 268°
2026-05-01 15:22 43.23911 20.13003 38185 ft 470 kts 268°
2026-05-01 15:22 43.23363 20.04106 38186 ft 471 kts 268°
2026-05-01 15:23 43.22807 19.95195 38182 ft 470 kts 268°
2026-05-01 15:23 43.22241 19.86244 38181 ft 471 kts 268°
2026-05-01 15:24 43.21670 19.77338 38194 ft 470 kts 268°
2026-05-01 15:24 43.21093 19.68430 38189 ft 470 kts 268°
2026-05-01 15:25 43.20510 19.59539 38174 ft 471 kts 268°
2026-05-01 15:25 43.19920 19.50656 38174 ft 471 kts 268°
2026-05-01 15:26 43.19323 19.41754 38150 ft 471 kts 268°
2026-05-01 15:26 43.18716 19.32831 38157 ft 472 kts 267°
2026-05-01 15:27 43.17822 19.23930 38135 ft 473 kts 263°
2026-05-01 15:28 43.16130 19.10665 38161 ft 473 kts 263°
2026-05-01 15:28 43.14992 19.01810 38186 ft 474 kts 263°
2026-05-01 15:29 43.13270 18.88529 38043 ft 465 kts 263°
2026-05-01 15:29 43.12136 18.79850 37211 ft 465 kts 263°
2026-05-01 15:30 43.10979 18.71020 37139 ft 477 kts 263°
2026-05-01 15:31 43.07430 18.44344 37157 ft 477 kts 263°
2026-05-01 15:32 43.05032 18.26592 37166 ft 476 kts 263°
2026-05-01 15:34 43.01374 17.99919 37171 ft 477 kts 262°